Retour au catalogue

STARLINK-32298

ActifCommunicationsVLEO
NORAD 61525·PAYLOAD·🇺🇸 United States

Lancé Oct 15, 2024 depuis Cape Canaveral Space Force Station

Loading…

Prochains Passages (prochaines 24 heures)

TLE

FraisSource: CelesTrak SupGP

Époque: Sep 14, 2026, 21:19 UTC

1 61525C 24183S   26257.88868056 -.00018172  00000+0 -58457-3 0  2577
2 61525  53.1602 342.1435 0001179  72.6844 178.2165 15.31700336    19

Suivez STARLINK-32298 en temps réel avec AllMySat

Download on the App Store